Regional Weather Roundup
Issued by NWS

Home | Current Version | Previous Version | Text Only | Print | Product List | Glossary Off
Versions: 1 2 3 4 5 6 7 8 9 10 11 12 13 14 15 16 17 18 19 20 21 22 23 24 25 26 27 28 29 30 31 32 33 34 35 36 37 38 39 40 41 42 43 44 45 46 47 48 49 50

474
ASUS43 KBIS 211202
RWRND

NORTH DAKOTA REGIONAL WEATHER ROUNDUP
NATIONAL WEATHER SERVICE BISMARCK ND
700 AM CDT THU SEP 21 2017

NOTE: "FAIR" INDICATES FEW OR NO CLOUDS BELOW 12,000 FEET WITH NO
SIGNIFICANT WEATHER AND/OR OBSTRUCTIONS TO VISIBILITY.


NDZ001>003-009>011-017-211300-
NORTHWEST NORTH DAKOTA

CITY           SKY/WX    TMP DP  RH WIND       PRES   REMARKS
WILLISTON      CLOUDY    49  40  71 SE5       29.67R
6HR MIN TEMP:  39; 6HR MAX TEMP:  49;

MINOT          PTCLDY    53  42  66 E6        29.64R
MINOT AFB      CLOUDY    52  42  69 CALM      29.64R
$$

NDZ018>021-031>035-040>046-211300-
SOUTHWEST NORTH DAKOTA

CITY           SKY/WX    TMP DP  RH WIND       PRES   REMARKS
BISMARCK       MOCLDY    57  44  62 SE9       29.70R
6HR MIN TEMP:  52; 6HR MAX TEMP:  58;

DICKINSON      CLOUDY    54  42  64 W7        29.63S
GARRISON         N/A     56  44  64 E9        29.66R
6HR MIN TEMP:  54; 6HR MAX TEMP:  58;

HETTINGER ARPT CLOUDY    58  38  47 SE9       29.66F
$$

NDZ004>008-012>016-024-026-027-054-211300-
NORTHEAST NORTH DAKOTA

CITY           SKY/WX    TMP DP  RH WIND       PRES   REMARKS
GRAND FORKS    CLOUDY    56  48  74 S14       29.81S
GRND FRKS AFB  MOCLDY    57  45  65 S16G25    29.81R
DEVILS LAKE    CLOUDY    56  46  69 SE16      29.74S
$$

NDZ022-023-025-028>030-036>039-047>053-211300-
SOUTHEAST NORTH DAKOTA

CITY           SKY/WX    TMP DP  RH WIND       PRES   REMARKS
FARGO          CLOUDY    56  48  74 S16G24    29.86R
6HR MIN TEMP:  55; 6HR MAX TEMP:  58;

JAMESTOWN      CLOUDY    55  47  74 S9        29.77S
$$





USA.gov is the U.S. government's official web portal to all federal, state and local government web resources and services.